Regional Weather Roundup
Issued by NWS

Home | Current Version | Previous Version | Graphics & Text | Print | Product List | Glossary On
Versions: 1 2 3 4 5 6 7 8 9 10 11 12 13 14 15 16 17 18 19 20 21 22 23 24 25 26 27 28 29 30 31 32 33 34 35 36 37 38 39 40 41 42 43 44 45 46 47 48 49 50
000
ASUS43 KOAX 220910
RWRNE

WEATHER ROUNDUP FOR NEBRASKA
NATIONAL WEATHER SERVICE OMAHA NE
400 AM CDT MON MAY 22 2017

NOTES: SATELLITE DATA IS BEING USED TO AUGMENT CLOUD COVER ABOVE
       12000 FEET.
       "FAIR" INDICATES FEW OR NO CLOUDS BELOW 12,000 FEET WITH NO
       SIGNIFICANT WEATHER AND/OR OBSTRUCTIONS TO VISIBILITY.

  * THESE STATIONS DO NOT REPORT WEATHER SUCH AS RAIN...SNOW OR FOG.

NEZ001>004-019>022-054>056-221000-
NEBRASKA PANHANDLE

CITY           SKY/WX    TMP DP  RH WIND       PRES   REMARKS
SCOTTSBLUFF    CLEAR     41  32  70 W6        30.15F
ALLIANCE       CLEAR     38  36  92 W12       30.11F WCI  30
CHADRON        CLEAR     40  38  93 W8        30.09F WCI  34
GORDON         FAIR      42  38  84 W8        30.07F
KIMBALL        CLEAR     38  36  94 W8        30.19F WCI  32
SIDNEY         CLEAR     35  34  96 W9        30.16F WCI  28
$$

NEZ057>060-069>072-079>082-221000-
SOUTHWEST NEBRASKA

CITY           SKY/WX    TMP DP  RH WIND       PRES   REMARKS
NORTH PLATTE   PTCLDY    42  41  96 W5        30.10F
IMPERIAL       CLOUDY    50  46  86 W10       30.12F
LEXINGTON      PTCLDY    53  46  79 W7        30.09F
MCCOOK         CLOUDY    54  50  86 SW9       30.11F
OGALLALA       CLOUDY    43  41  93 W9        30.12F
$$

NEZ005>010-023>029-035>040-094-221000-
NORTH CENTRAL NEBRASKA

CITY           SKY/WX    TMP DP  RH WIND       PRES   REMARKS
VALENTINE      CLEAR     43  38  82 W7        30.02F
AINSWORTH      CLEAR     46  43  90 W9        30.02F
BROKEN BOW     CLEAR     49  44  83 NW8       30.05F
O`NEILL        CLEAR     51  44  75 W9        30.00F
ORD            PTCLDY    49  43  80 CALM      30.02F
THEDFORD       CLEAR     45  42  88 W5        30.07F
$$

NEZ041-046>049-061>064-073>077-083>087-221000-
SOUTH CENTRAL NEBRASKA

CITY           SKY/WX    TMP DP  RH WIND       PRES   REMARKS
GRAND ISLAND   CLOUDY    57  48  72 W12       30.04S
AURORA         PTCLDY    55  47  74 W13       30.02F
HASTINGS       PTCLDY    56  47  71 SW6       30.06S
HEBRON         LGT RAIN  56  54  91 SW13G18   30.07S
HOLDREGE       MOCLDY    52  47  81 W8        30.08S
KEARNEY *      MOCLDY    57  45  62 W13       30.06F
YORK           MOCLDY    54  48  82 SW13      30.02S
$$

NEZ011>018-030>034-042>045-221000-
NORTHEAST NEBRASKA

CITY           SKY/WX    TMP DP  RH WIND       PRES   REMARKS
NORFOLK        CLOUDY    51  42  71 CALM      29.96F
ALBION         CLEAR     50  43  77 NW6       30.00F
BLAIR          PTCLDY    52  45  75 S9        29.98F
FREMONT        PTCLDY    55  44  65 S9        29.98F
TEKAMAH        CLOUDY    53  45  74 S10       29.97F
WAYNE          CLOUDY    54  46  73 SW10      29.97S
$$

NEZ050>053-065>068-078-088>093-221000-
SOUTHEAST NEBRASKA

CITY           SKY/WX    TMP DP  RH WIND       PRES   REMARKS
LINCOLN        CLEAR     53  46  77 SW6       30.02F
OMAHA EPPLEY   PTCLDY    51  45  79 SE8       29.99F
BEATRICE       MOCLDY    53  48  83 CALM      30.04S
FALLS CITY     CLEAR     53  44  71 S8        30.04F
NEBRASKA CITY  CLEAR     54  39  57 S12       30.02F
PLATTSMOUTH    CLEAR     53  41  65 S12       30.01F
$$

NEZ044-045-051>053-067-221000-
OMAHA AREA

CITY           SKY/WX    TMP DP  RH WIND       PRES   REMARKS
OMAHA EPPLEY   PTCLDY    51  45  79 SE8       29.99F
BLAIR          PTCLDY    52  45  75 S9        29.98F
FREMONT        PTCLDY    55  44  65 S9        29.98F
MILLARD        CLEAR     55  46  70 CALM      30.00F
OFFUTT AFB     CLEAR     50  41  71 VRB3      30.01F
PLATTSMOUTH    CLEAR     53  41  65 S12       30.01F
WAHOO          FAIR      53  44  73 S9        29.99F
$$




USA.gov is the U.S. government's official web portal to all federal, state and local government web resources and services.